User: anonymous   Login
Location: Radomski Observatory
(40.2854°N, 79.5145°W)
Time: 13:41:19
(UTC-04:00)
Language:

Cosmos 1072 Rocket - Orbit

View from above orbital plane
View from above orbital plane
View from above satellite
View from above satellite

Ground track
Ground track

The orbit data is extracted from the following two-line orbital elements,

1 11239U 79003B   15152.40836856  .00000072  00000-0  58343-4 0  9995
2 11239 082.9383 282.8433 0039787 320.3117 091.8204 13.75776235825175
Epoch (UTC): 01 June 2015 09:48:03
Eccentricity: 0.0039787
inclination: 82.9383°
perigee height: 949 km
apogee height: 1008 km
right ascension of ascending node: 282.8433°
argument of perigee: 320.3117°
revolutions per day: 13.75776235
mean anomaly at epoch: 91.8204°
orbit number at epoch: 82517

The dashed part of the orbit path shows where the satellite is in the earth's shadow,  

DLR